,,PA_Meas_PMT16A,,PR_Meas_QMR101_102,,RH_Meas_QMH101,,SR_Meas_QMS101,,TA_Meas_QMH101,,GenWind,,GenWind,
time,status,PA,status,PR,status,RH,status,SR,status,TA,status,DirAvg,status,SpdAvg,
2016-05-10, 07:06:04,VALID,916.073,VALID,0,INVALID,110.578,VALID,109.16,VALID,20.678,VALID,157,VALID,1.15625,
2016-05-10, 07:07:04,VALID,916.09,VALID,0,INVALID,110.196,VALID,114.21,VALID,20.678,VALID,177,VALID,1.29219,
2016-05-10, 07:08:04,VALID,916.107,VALID,0,INVALID,110.242,VALID,117.541,VALID,20.7365,VALID,158,VALID,1.12422,
2016-05-10, 07:09:04,VALID,916.134,VALID,0,INVALID,110.265,VALID,121.194,VALID,20.7771,VALID,140,VALID,0.814844,
2016-05-10, 07:10:04,VALID,916.135,VALID,0,INVALID,110.227,VALID,125.814,VALID,20.834,VALID,168,VALID,0.532422,
2016-05-10, 07:11:04,VALID,916.159,VALID,0,INVALID,109.876,VALID,130.004,VALID,20.8535,VALID,119,VALID,0.919922,
2016-05-10, 07:12:04,VALID,916.185,VALID,0,INVALID,109.579,VALID,133.657,VALID,20.8925,VALID,138,VALID,1.14766,
2016-05-10, 07:13:04,VALID,916.17,VALID,0,INVALID,109.648,VALID,135.376,VALID,20.912,VALID,102,VALID,0.582031,
2016-05-10, 07:14:04,VALID,916.202,VALID,0,INVALID,109.716,VALID,138.169,VALID,20.9901,VALID,128,VALID,0,
2016-05-10, 07:15:04,VALID,916.21,VALID,0,INVALID,109.419,VALID,142.145,VALID,21.047,VALID,121,VALID,1.13555,
2016-05-10, 07:16:04,VALID,916.208,VALID,0,INVALID,109.228,VALID,145.798,VALID,21.1266,VALID,136,VALID,0.155469,
2016-05-10, 07:17:04,VALID,916.241,VALID,0,INVALID,109.114,VALID,148.376,VALID,21.1852,VALID,135,VALID,0,
2016-05-10, 07:18:04,VALID,916.253,VALID,0,INVALID,109.282,VALID,149.988,VALID,21.3234,VALID,121,VALID,0.009375,
2016-05-10, 07:19:04,VALID,916.246,VALID,0,VALID,104,VALID,152.244,VALID,21.3396,VALID,131,VALID,0.484375,
2016-05-10, 07:20:04,VALID,916.287,VALID,0,VALID,104,VALID,154.393,VALID,21.4193,VALID,129,VALID,0,
2016-05-10, 07:21:04,VALID,916.271,VALID,0,VALID,104,VALID,156.972,VALID,21.4973,VALID,142,VALID,0,
2016-05-10, 07:22:04,VALID,916.222,VALID,0,VALID,104,VALID,160.195,VALID,21.5347,VALID,164,VALID,0,
2016-05-10, 07:23:04,VALID,916.251,VALID,0,VALID,104,VALID,163.74,VALID,21.5737,VALID,102,VALID,0,
2016-05-10, 07:24:04,VALID,916.267,VALID,0,VALID,104,VALID,168.468,VALID,21.6729,VALID,128,VALID,0.876562,
2016-05-10, 07:25:04,VALID,916.262,VALID,0,VALID,104,VALID,173.088,VALID,21.6534,VALID,121,VALID,0,
2016-05-10, 07:26:04,VALID,916.262,VALID,0,VALID,104,VALID,144.401,VALID,21.6713,VALID,124,VALID,0,
2016-05-10, 07:27:04,VALID,916.281,VALID,0,VALID,104,VALID,121.838,VALID,21.7315,VALID,79,VALID,0,
2016-05-10, 07:29:04,VALID,916.324,VALID,0,VALID,104,VALID,126.566,VALID,21.6924,VALID,85,VALID,0,
2016-05-10, 07:30:04,VALID,916.341,VALID,0,VALID,104,VALID,150.525,VALID,21.712,VALID,82,VALID,0,
2016-05-10, 07:31:04,VALID,916.345,VALID,0,VALID,104,VALID,147.194,VALID,21.7087,VALID,100,VALID,0,
2016-05-10, 07:32:04,VALID,916.37,VALID,0,VALID,104,VALID,167.071,VALID,21.7688,VALID,124,VALID,0,
2016-05-10, 07:33:04,VALID,916.39,VALID,0,VALID,104,VALID,192.857,VALID,21.7883,VALID,171,VALID,0,
2016-05-10, 07:34:04,VALID,916.382,VALID,0,VALID,104,VALID,198.229,VALID,21.8274,VALID,152,VALID,0,
2016-05-10, 07:35:04,VALID,916.401,VALID,0,VALID,104,VALID,201.667,VALID,21.8842,VALID,149,VALID,0,
2016-05-10, 07:36:04,VALID,916.399,VALID,0,VALID,104,VALID,201.774,VALID,21.9444,VALID,155,VALID,0,
2016-05-10, 07:37:04,VALID,916.42,VALID,0,VALID,104,VALID,191.138,VALID,22.003,VALID,149,VALID,0,
2016-05-10, 07:38:04,VALID,916.443,VALID,0,VALID,104,VALID,186.625,VALID,22.1005,VALID,147,VALID,0,
2016-05-10, 07:39:04,VALID,916.436,VALID,0,VALID,104,VALID,145.26,VALID,22.1396,VALID,152,VALID,0,
2016-05-10, 07:40:04,VALID,916.461,VALID,0,VALID,104,VALID,154.393,VALID,22.1396,VALID,152,VALID,0,
2016-05-10, 07:41:04,VALID,916.478,VALID,0,VALID,104,VALID,163.311,VALID,22.1981,VALID,142,VALID,0,
2016-05-10, 07:42:04,VALID,916.451,VALID,0,VALID,104,VALID,176.633,VALID,22.1591,VALID,99,VALID,0,
2016-05-10, 07:43:04,VALID,916.489,VALID,0,VALID,104,VALID,214.023,VALID,22.1184,VALID,142,VALID,0,
2016-05-10, 07:44:04,VALID,916.509,VALID,0,VALID,104,VALID,221.436,VALID,22.1591,VALID,141,VALID,0,
2016-05-10, 07:45:04,VALID,916.523,VALID,0,VALID,104,VALID,219.502,VALID,22.1981,VALID,139,VALID,0.692969,
2016-05-10, 07:46:04,VALID,916.515,VALID,0,VALID,104,VALID,223.478,VALID,22.2176,VALID,143,VALID,0,
2016-05-10, 07:47:04,VALID,916.555,VALID,0,VALID,104,VALID,192.642,VALID,22.3933,VALID,66,VALID,0,
2016-05-10, 07:48:04,VALID,916.546,VALID,0,VALID,104,VALID,234.437,VALID,22.4891,VALID,136,VALID,0.249609,
2016-05-10, 07:49:04,VALID,916.579,VALID,0,VALID,104,VALID,238.412,VALID,22.5884,VALID,104,VALID,0,
2016-05-10, 07:50:04,VALID,916.601,VALID,0,VALID,104,VALID,235.081,VALID,22.7038,VALID,70,VALID,0,
2016-05-10, 07:51:04,VALID,916.625,VALID,0,VALID,103.617,VALID,238.519,VALID,22.8989,VALID,70,VALID,0,
2016-05-10, 07:52:04,VALID,916.603,VALID,0,VALID,101.811,VALID,244.966,VALID,23.0356,VALID,79,VALID,0,
2016-05-10, 07:53:04,VALID,916.629,VALID,0,VALID,100.522,VALID,248.619,VALID,22.9787,VALID,101,VALID,0,
2016-05-10, 07:54:04,VALID,916.626,VALID,0,VALID,100.034,VALID,250.66,VALID,22.8794,VALID,125,VALID,0.00273437,
2016-05-10, 07:55:04,VALID,916.637,VALID,0,VALID,99.9887,VALID,253.131,VALID,22.8421,VALID,119,VALID,0,
2016-05-10, 07:56:04,VALID,916.66,VALID,0,VALID,98.3497,VALID,255.388,VALID,22.8812,VALID,128,VALID,0.287109,
2016-05-10, 07:57:04,VALID,916.652,VALID,0,VALID,98.2277,VALID,258.074,VALID,22.8616,VALID,105,VALID,0.0855469,
2016-05-10, 07:58:04,VALID,916.69,VALID,0,VALID,99.0739,VALID,258.718,VALID,22.8404,VALID,95,VALID,0,
2016-05-10, 07:59:04,VALID,916.714,VALID,0,VALID,100.095,VALID,261.834,VALID,22.7818,VALID,133,VALID,0.555078,
2016-05-10, 08:00:04,VALID,916.731,VALID,0,VALID,103.313,VALID,267.528,VALID,22.6665,VALID,136,VALID,0,
2016-05-10, 08:01:04,VALID,916.725,VALID,0,VALID,103.983,VALID,271.934,VALID,22.6274,VALID,148,VALID,0.24375,
2016-05-10, 08:02:04,VALID,916.724,VALID,0,VALID,104,VALID,276.661,VALID,22.6665,VALID,161,VALID,0.128516,
2016-05-10, 08:03:04,VALID,916.727,VALID,0,VALID,104,VALID,278.81,VALID,22.6665,VALID,157,VALID,0.0390625,
2016-05-10, 08:04:04,VALID,916.744,VALID,0,VALID,104,VALID,284.719,VALID,22.7055,VALID,158,VALID,0.00195313,
2016-05-10, 08:05:04,VALID,916.772,VALID,0,VALID,101.925,VALID,286.008,VALID,22.6843,VALID,154,VALID,0.523828,
2016-05-10, 08:06:04,VALID,916.817,VALID,0,VALID,102.87,VALID,290.951,VALID,22.6843,VALID,142,VALID,1.10625,
2016-05-10, 08:07:04,VALID,916.817,VALID,0,VALID,100.499,VALID,294.174,VALID,22.6843,VALID,144,VALID,1.90156,
2016-05-10, 08:08:04,VALID,916.835,VALID,0,VALID,101.811,VALID,297.612,VALID,22.6647,VALID,132,VALID,1.74688,
2016-05-10, 08:09:04,VALID,916.833,VALID,0,VALID,99.6533,VALID,299.116,VALID,22.6843,VALID,119,VALID,1.07344,
2016-05-10, 08:10:04,VALID,916.859,VALID,0,VALID,98.9901,VALID,298.042,VALID,22.6647,VALID,141,VALID,1.30938,
2016-05-10, 08:11:04,VALID,916.881,VALID,0,VALID,101.574,VALID,302.125,VALID,22.7233,VALID,114,VALID,0.745313,
2016-05-10, 08:12:04,VALID,916.905,VALID,0,VALID,99.5008,VALID,311.15,VALID,22.8209,VALID,137,VALID,1.5332,
2016-05-10, 08:13:04,VALID,916.899,VALID,0,VALID,97.0461,VALID,307.711,VALID,22.7818,VALID,141,VALID,2.42891,
2016-05-10, 08:14:04,VALID,916.937,VALID,0,VALID,102.657,VALID,300.513,VALID,22.8209,VALID,138,VALID,0.348828,
2016-05-10, 08:15:04,VALID,916.909,VALID,0,VALID,97.9228,VALID,308.141,VALID,22.7623,VALID,145,VALID,1.9082,
2016-05-10, 08:16:04,VALID,916.91,VALID,0,VALID,102.382,VALID,310.612,VALID,22.7428,VALID,133,VALID,1.45,
2016-05-10, 08:17:04,VALID,916.903,VALID,0,VALID,103.435,VALID,321.142,VALID,22.7818,VALID,145,VALID,1.65,
2016-05-10, 08:18:04,VALID,916.911,VALID,0,VALID,103.595,VALID,324.472,VALID,22.7818,VALID,149,VALID,1.21094,
2016-05-10, 08:19:04,VALID,916.94,VALID,0,VALID,103.541,VALID,325.117,VALID,22.7818,VALID,116,VALID,1.51328,
2016-05-10, 08:20:04,VALID,916.923,VALID,0,VALID,103.206,VALID,326.729,VALID,22.7818,VALID,131,VALID,1.71133,
2016-05-10, 08:21:04,VALID,916.921,VALID,0,VALID,103.686,VALID,333.712,VALID,22.7801,VALID,153,VALID,1.53906,
2016-05-10, 08:22:04,VALID,916.929,VALID,0,VALID,103.511,VALID,339.407,VALID,22.8014,VALID,155,VALID,1.23516,
2016-05-10, 08:23:04,VALID,916.942,VALID,0,VALID,102.596,VALID,346.39,VALID,22.8421,VALID,139,VALID,1.31289,
2016-05-10, 08:24:04,VALID,916.956,VALID,0,VALID,102.131,VALID,350.258,VALID,22.8794,VALID,139,VALID,1.11445,
2016-05-10, 08:25:04,VALID,916.965,VALID,0,VALID,101.338,VALID,353.589,VALID,22.9575,VALID,146,VALID,1.63203,
2016-05-10, 08:26:04,VALID,916.984,VALID,0,VALID,99.0053,VALID,354.448,VALID,23.016,VALID,135,VALID,1.47461,
2016-05-10, 08:27:04,VALID,917.007,VALID,0,VALID,98.4564,VALID,354.448,VALID,23.016,VALID,153,VALID,0.805469,
2016-05-10, 08:28:04,VALID,917.011,VALID,0,VALID,101.452,VALID,359.068,VALID,23.016,VALID,132,VALID,1.5543,
2016-05-10, 08:29:04,VALID,917.005,VALID,0,VALID,102.032,VALID,359.606,VALID,23.0746,VALID,149,VALID,1.11055,
2016-05-10, 08:30:04,VALID,917.029,VALID,0,VALID,100.644,VALID,363.796,VALID,23.1331,VALID,147,VALID,1.87852,
2016-05-10, 08:31:04,VALID,917.05,VALID,0,VALID,102.581,VALID,367.556,VALID,23.1722,VALID,156,VALID,1.44102,
2016-05-10, 08:32:04,VALID,917.062,VALID,0,VALID,100.073,VALID,369.06,VALID,23.1704,VALID,172,VALID,1.39258,
2016-05-10, 08:33:04,VALID,917.089,VALID,0,VALID,86.5563,VALID,372.284,VALID,23.1917,VALID,142,VALID,2.70898,
2016-05-10, 08:34:04,VALID,917.075,VALID,0,VALID,99.0434,VALID,368.416,VALID,23.2112,VALID,140,VALID,0.597656,
2016-05-10, 08:35:04,VALID,917.05,VALID,0,VALID,101.003,VALID,368.308,VALID,23.2698,VALID,150,VALID,0.851953,
2016-05-10, 08:36:04,VALID,917.097,VALID,0,VALID,99.6304,VALID,369.06,VALID,23.2698,VALID,141,VALID,1.55898,
2016-05-10, 08:37:04,VALID,917.093,VALID,0,VALID,100.21,VALID,379.697,VALID,23.3265,VALID,146,VALID,0.663281,
2016-05-10, 08:38:04,VALID,917.138,VALID,0,VALID,89.6361,VALID,391.838,VALID,23.3656,VALID,156,VALID,2.36914,
2016-05-10, 08:39:04,VALID,917.116,VALID,0,VALID,88.9119,VALID,391.945,VALID,23.3461,VALID,138,VALID,2.23516,
2016-05-10, 08:40:04,VALID,917.129,VALID,0,VALID,88.2334,VALID,383.565,VALID,23.3851,VALID,146,VALID,1.62969,
2016-05-10, 08:41:04,VALID,917.164,VALID,0,VALID,97.1071,VALID,377.656,VALID,23.4632,VALID,177,VALID,0.0195313,
2016-05-10, 08:42:04,VALID,917.158,VALID,0,VALID,95.0564,VALID,389.367,VALID,23.5626,VALID,134,VALID,1.08242,
2016-05-10, 08:43:04,VALID,917.2,VALID,0,VALID,97.3434,VALID,397.103,VALID,23.5998,VALID,144,VALID,0.305859,
2016-05-10, 08:44:04,VALID,917.183,VALID,0,VALID,92.3424,VALID,396.673,VALID,23.6779,VALID,136,VALID,1.09258,
2016-05-10, 08:45:04,VALID,917.198,VALID,0,VALID,88.7747,VALID,408.061,VALID,23.8145,VALID,134,VALID,0.223828,
2016-05-10, 08:46:04,VALID,917.185,VALID,0,VALID,85.306,VALID,412.467,VALID,23.834,VALID,139,VALID,1.63672,
2016-05-10, 08:47:04,VALID,917.211,VALID,0,VALID,82.6302,VALID,406.235,VALID,23.8145,VALID,154,VALID,2.07578,
2016-05-10, 08:48:04,VALID,917.177,VALID,0,VALID,86.0226,VALID,406.772,VALID,23.834,VALID,139,VALID,1.82461,
2016-05-10, 08:49:04,VALID,917.191,VALID,0,VALID,86.015,VALID,412.359,VALID,23.795,VALID,147,VALID,1.86836,
2016-05-10, 08:50:04,VALID,917.168,VALID,0,VALID,88.9195,VALID,427.401,VALID,23.795,VALID,128,VALID,0.558594,
2016-05-10, 08:51:04,VALID,917.201,VALID,0,VALID,85.9311,VALID,434.814,VALID,23.8145,VALID,130,VALID,1.03359,
2016-05-10, 08:52:04,VALID,917.188,VALID,0,VALID,88.4774,VALID,433.847,VALID,23.9316,VALID,151,VALID,0.283203,
2016-05-10, 08:53:04,VALID,917.19,VALID,0,VALID,88.5536,VALID,439.327,VALID,24.0683,VALID,105,VALID,0.905469,
2016-05-10, 08:54:04,VALID,917.216,VALID,0,VALID,86.1751,VALID,438.145,VALID,24.1854,VALID,87,VALID,0.0363281,
2016-05-10, 08:55:04,VALID,917.21,VALID,0,VALID,86.2437,VALID,438.252,VALID,24.3416,VALID,123,VALID,0.0910156,
2016-05-10, 08:56:04,VALID,917.207,VALID,0,VALID,80.5261,VALID,445.666,VALID,24.3806,VALID,102,VALID,0.655078,
2016-05-10, 08:57:04,VALID,917.224,VALID,0,VALID,80.8082,VALID,451.253,VALID,24.3416,VALID,138,VALID,0.334375,
2016-05-10, 08:58:04,VALID,917.244,VALID,0,VALID,79.1311,VALID,452.542,VALID,24.3398,VALID,138,VALID,1.20977,
2016-05-10, 08:59:04,VALID,917.25,VALID,0,VALID,79.8172,VALID,453.187,VALID,24.3026,VALID,116,VALID,1.4582,
2016-05-10, 09:00:04,VALID,917.253,VALID,0,VALID,81.6163,VALID,456.303,VALID,24.3611,VALID,143,VALID,1.0082,
2016-05-10, 09:01:04,VALID,917.286,VALID,0,VALID,79.6571,VALID,462.856,VALID,24.244,VALID,142,VALID,1.75625,
2016-05-10, 09:02:04,VALID,917.305,VALID,0,VALID,81.7611,VALID,478.328,VALID,24.283,VALID,145,VALID,0.0148437,
2016-05-10, 09:03:04,VALID,917.305,VALID,0,VALID,80.2288,VALID,480.155,VALID,24.3806,VALID,157,VALID,0.944141,
2016-05-10, 09:04:04,VALID,917.326,VALID,0,VALID,78.6127,VALID,476.501,VALID,24.283,VALID,144,VALID,1.85,
2016-05-10, 09:05:04,VALID,917.326,VALID,0,VALID,79.8019,VALID,470.807,VALID,24.2635,VALID,151,VALID,0.438672,
2016-05-10, 09:06:04,VALID,917.383,VALID,0,VALID,79.7104,VALID,480.047,VALID,24.4197,VALID,170,VALID,0.571484,
2016-05-10, 09:07:04,VALID,917.375,VALID,0,VALID,79.2073,VALID,487.568,VALID,24.4978,VALID,161,VALID,1.10312,
2016-05-10, 09:08:04,VALID,917.381,VALID,0,VALID,78.1019,VALID,487.246,VALID,24.5759,VALID,165,VALID,1.36211,
2016-05-10, 09:09:04,VALID,917.366,VALID,0,VALID,77.4463,VALID,491.866,VALID,24.5759,VALID,144,VALID,0.540234,
2016-05-10, 09:10:04,VALID,917.403,VALID,0,VALID,78.0638,VALID,488.75,VALID,24.5954,VALID,177,VALID,0.780859,
2016-05-10, 09:11:04,VALID,917.372,VALID,0,VALID,77.1718,VALID,489.18,VALID,24.693,VALID,145,VALID,2.32539,
2016-05-10, 09:12:04,VALID,917.399,VALID,0,VALID,73.261,VALID,495.626,VALID,24.693,VALID,141,VALID,2.39297,
2016-05-10, 09:13:04,VALID,917.423,VALID,0,VALID,74.2673,VALID,499.816,VALID,24.5759,VALID,142,VALID,1.93203,
2016-05-10, 09:14:04,VALID,917.379,VALID,0,VALID,77.4844,VALID,509.916,VALID,24.574,VALID,118,VALID,0.696875,
2016-05-10, 09:15:04,VALID,917.418,VALID,0,VALID,76.2189,VALID,522.594,VALID,24.6735,VALID,155,VALID,0.859766,
2016-05-10, 09:16:04,VALID,917.421,VALID,0,VALID,77.2404,VALID,524.957,VALID,24.6345,VALID,147,VALID,0.216797,
2016-05-10, 09:17:04,VALID,917.417,VALID,0,VALID,78.7041,VALID,518.189,VALID,24.8297,VALID,121,VALID,0.115234,
2016-05-10, 09:18:04,VALID,917.429,VALID,0,VALID,78.0638,VALID,518.296,VALID,24.9664,VALID,142,VALID,0,
2016-05-10, 09:19:04,VALID,917.449,VALID,0,VALID,76.0741,VALID,426.326,VALID,24.9255,VALID,151,VALID,1.86094,
2016-05-10, 09:20:04,VALID,917.412,VALID,0,VALID,75.7768,VALID,520.875,VALID,24.9274,VALID,144,VALID,0.213281,
2016-05-10, 09:21:04,VALID,917.429,VALID,0,VALID,75.2355,VALID,527.751,VALID,24.8474,VALID,129,VALID,1.82734,
2016-05-10, 09:22:04,VALID,917.405,VALID,0,VALID,76.3561,VALID,545.156,VALID,24.8278,VALID,136,VALID,0.612891,
2016-05-10, 09:23:04,VALID,917.4,VALID,0,VALID,75.4718,VALID,293.207,VALID,24.8669,VALID,139,VALID,0.469141,
2016-05-10, 09:24:04,VALID,917.426,VALID,0,VALID,75.2736,VALID,132.153,VALID,24.9255,VALID,102,VALID,1.43359,
2016-05-10, 09:25:04,VALID,917.438,VALID,0,VALID,77.2252,VALID,263.875,VALID,24.8474,VALID,121,VALID,0,
2016-05-10, 09:26:04,VALID,917.451,VALID,0,VALID,74.5418,VALID,553,VALID,24.8688,VALID,123,VALID,0.139062,
2016-05-10, 09:27:04,VALID,917.448,VALID,0,VALID,76.4171,VALID,556.438,VALID,24.9645,VALID,104,VALID,0.149219,
2016-05-10, 09:28:04,VALID,917.475,VALID,0,VALID,71.9803,VALID,549.454,VALID,24.9645,VALID,110,VALID,0.417969,
2016-05-10, 09:29:04,VALID,917.468,VALID,0,VALID,73.8785,VALID,582.009,VALID,24.945,VALID,131,VALID,1.59805,
2016-05-10, 09:30:04,VALID,917.451,VALID,0,VALID,74.7095,VALID,600.274,VALID,24.945,VALID,126,VALID,0.537891,
2016-05-10, 09:31:04,VALID,917.43,VALID,0,VALID,74.9763,VALID,588.778,VALID,25.0426,VALID,85,VALID,0.318359,
2016-05-10, 09:32:04,VALID,917.437,VALID,0,VALID,72.3233,VALID,593.827,VALID,25.1793,VALID,94,VALID,0,
2016-05-10, 09:33:04,VALID,917.438,VALID,0,VALID,71.5763,VALID,608.224,VALID,25.1793,VALID,131,VALID,0.350781,
2016-05-10, 09:34:04,VALID,917.417,VALID,0,VALID,74.7933,VALID,605.646,VALID,25.2769,VALID,74,VALID,0.122656,
2016-05-10, 09:35:04,VALID,917.427,VALID,0,VALID,73.261,VALID,291.595,VALID,25.3355,VALID,121,VALID,0.358984,
2016-05-10, 09:36:04,VALID,917.443,VALID,0,VALID,71.5305,VALID,133.012,VALID,25.316,VALID,161,VALID,0.107031,
2016-05-10, 09:37:04,VALID,917.42,VALID,0,VALID,73.909,VALID,623.803,VALID,25.2164,VALID,133,VALID,0.592578,
2016-05-10, 09:38:04,VALID,917.416,VALID,0,VALID,73.0781,VALID,585.125,VALID,25.1598,VALID,122,VALID,1.42344,
2016-05-10, 09:39:04,VALID,917.387,VALID,0,VALID,76.5848,VALID,590.067,VALID,25.2183,VALID,142,VALID,0.211719,
2016-05-10, 09:40:04,VALID,917.449,VALID,0,VALID,75.5404,VALID,585.662,VALID,25.2945,VALID,144,VALID,0.123438,
2016-05-10, 09:41:04,VALID,917.444,VALID,0,VALID,76.3942,VALID,587.703,VALID,25.4331,VALID,113,VALID,0.827344,
2016-05-10, 09:42:04,VALID,917.423,VALID,0,VALID,72.4377,VALID,592.001,VALID,25.6284,VALID,38,VALID,1.87734,
2016-05-10, 09:43:04,VALID,917.413,VALID,0,VALID,70.2269,VALID,592.431,VALID,25.8628,VALID,30,VALID,0.932031,
2016-05-10, 09:44:04,VALID,917.404,VALID,0,VALID,69.335,VALID,600.596,VALID,25.8413,VALID,55,VALID,0.693359,
2016-05-10, 09:45:04,VALID,917.397,VALID,0,VALID,69.4417,VALID,586.091,VALID,25.7847,VALID,99,VALID,0.412891,
2016-05-10, 09:46:04,VALID,917.344,VALID,0,VALID,71.965,VALID,586.844,VALID,25.7827,VALID,49,VALID,2.14492,
2016-05-10, 09:47:04,VALID,917.363,VALID,0,VALID,70.5014,VALID,585.662,VALID,25.8413,VALID,46,VALID,0.620313,
2016-05-10, 09:48:04,VALID,917.346,VALID,0,VALID,67.7493,VALID,598.447,VALID,25.7827,VALID,67,VALID,1.78711,
2016-05-10, 09:49:04,VALID,917.338,VALID,0,VALID,70.7682,VALID,604.894,VALID,25.8823,VALID,67,VALID,0.235156,
2016-05-10, 09:50:04,VALID,917.349,VALID,0,VALID,69.3426,VALID,612.952,VALID,25.8218,VALID,112,VALID,0.350781,
2016-05-10, 09:51:04,VALID,917.359,VALID,0,VALID,68.6946,VALID,619.291,VALID,25.9019,VALID,135,VALID,0.550391,
2016-05-10, 09:52:04,VALID,917.353,VALID,0,VALID,67.9628,VALID,629.068,VALID,25.98,VALID,70,VALID,1.12109,
2016-05-10, 09:53:04,VALID,917.326,VALID,0,VALID,68.6336,VALID,633.688,VALID,26.0171,VALID,62,VALID,0,
2016-05-10, 09:54:04,VALID,917.355,VALID,0,VALID,67.1699,VALID,635.514,VALID,26.1733,VALID,60,VALID,0.00429688,
2016-05-10, 09:55:04,VALID,917.367,VALID,0,VALID,66.3085,VALID,639.597,VALID,26.3686,VALID,70,VALID,0,
2016-05-10, 09:56:04,VALID,917.337,VALID,0,VALID,67.3986,VALID,637.986,VALID,26.4468,VALID,65,VALID,0.753516,
2016-05-10, 09:57:04,VALID,917.331,VALID,0,VALID,68.4659,VALID,638.415,VALID,26.5249,VALID,57,VALID,0,
2016-05-10, 09:58:04,VALID,917.346,VALID,0,VALID,66.3008,VALID,638.845,VALID,26.5835,VALID,72,VALID,1.36914,
2016-05-10, 09:59:04,VALID,917.308,VALID,0,VALID,65.1268,VALID,638.63,VALID,26.4683,VALID,51,VALID,1.9707,
2016-05-10, 10:00:04,VALID,917.298,VALID,0,VALID,67.7417,VALID,640.779,VALID,26.4097,VALID,76,VALID,0.535547,
2016-05-10, 10:01:04,VALID,917.321,VALID,0,VALID,64.7838,VALID,641.531,VALID,26.4292,VALID,62,VALID,0,
2016-05-10, 10:02:04,VALID,917.28,VALID,0,VALID,64.6466,VALID,646.366,VALID,26.4488,VALID,63,VALID,0,
2016-05-10, 10:03:04,VALID,917.277,VALID,0,VALID,67.4596,VALID,657.11,VALID,26.4878,VALID,97,VALID,0.0105469,
2016-05-10, 10:04:04,VALID,917.252,VALID,0,VALID,67.1013,VALID,668.606,VALID,26.5855,VALID,91,VALID,0,
2016-05-10, 10:05:04,VALID,917.248,VALID,0,VALID,65.2869,VALID,677.416,VALID,26.7613,VALID,94,VALID,0,
2016-05-10, 10:06:04,VALID,917.227,VALID,0,VALID,66.0569,VALID,662.375,VALID,26.857,VALID,83,VALID,0.0152344,
2016-05-10, 10:07:04,VALID,917.282,VALID,0,VALID,64.0367,VALID,661.193,VALID,26.896,VALID,129,VALID,0,
2016-05-10, 10:08:04,VALID,917.282,VALID,0,VALID,62.0775,VALID,664.094,VALID,26.9762,VALID,129,VALID,0,
2016-05-10, 10:09:04,VALID,917.241,VALID,0,VALID,63.5107,VALID,676.449,VALID,26.9176,VALID,127,VALID,0,
2016-05-10, 10:10:04,VALID,917.29,VALID,0,VALID,64.4789,VALID,676.664,VALID,26.8981,VALID,123,VALID,0,
2016-05-10, 10:11:04,VALID,917.245,VALID,0,VALID,67.0174,VALID,673.549,VALID,27.0935,VALID,113,VALID,0,
2016-05-10, 10:12:04,VALID,917.258,VALID,0,VALID,63.6936,VALID,678.491,VALID,27.1325,VALID,59,VALID,0,
2016-05-10, 10:13:04,VALID,917.213,VALID,0,VALID,66.9336,VALID,683.863,VALID,27.2477,VALID,51,VALID,0.0621094,
2016-05-10, 10:14:04,VALID,917.201,VALID,0,VALID,66.9946,VALID,690.739,VALID,27.2498,VALID,35,VALID,1.32969,
2016-05-10, 10:15:04,VALID,917.232,VALID,0,VALID,62.7788,VALID,702.45,VALID,27.15,VALID,57,VALID,1.88008,
2016-05-10, 10:16:04,VALID,917.228,VALID,0,VALID,62.7331,VALID,687.409,VALID,27.0348,VALID,59,VALID,0,
2016-05-10, 10:17:04,VALID,917.234,VALID,0,VALID,62.5349,VALID,683.541,VALID,27.1305,VALID,59,VALID,0,
2016-05-10, 10:18:04,VALID,917.234,VALID,0,VALID,63.9833,VALID,687.301,VALID,27.3063,VALID,65,VALID,1.55625,
2016-05-10, 10:19:04,VALID,917.231,VALID,0,VALID,63.2362,VALID,692.888,VALID,27.1305,VALID,78,VALID,0.205078,
2016-05-10, 10:20:04,VALID,917.211,VALID,0,VALID,64.395,VALID,701.268,VALID,27.15,VALID,84,VALID,0.0195313,
2016-05-10, 10:21:04,VALID,917.218,VALID,0,VALID,63.9757,VALID,696.326,VALID,27.1695,VALID,86,VALID,0,
2016-05-10, 10:22:04,VALID,917.201,VALID,0,VALID,62.7941,VALID,696.434,VALID,27.367,VALID,44,VALID,0,
2016-05-10, 10:23:04,VALID,917.198,VALID,0,VALID,61.6658,VALID,698.69,VALID,27.6406,VALID,44,VALID,0,
2016-05-10, 10:24:04,VALID,917.193,VALID,0,VALID,63.6403,VALID,698.797,VALID,27.7752,VALID,107,VALID,0.628516,
2016-05-10, 10:25:04,VALID,917.194,VALID,0,VALID,61.0407,VALID,700.624,VALID,27.5798,VALID,107,VALID,0.103125,
2016-05-10, 10:26:04,VALID,917.206,VALID,0,VALID,59.516,VALID,706.748,VALID,27.3649,VALID,116,VALID,0,
2016-05-10, 10:27:04,VALID,917.165,VALID,0,VALID,61.1245,VALID,714.161,VALID,27.3649,VALID,105,VALID,0,
2016-05-10, 10:28:04,VALID,917.144,VALID,0,VALID,61.7344,VALID,723.724,VALID,27.6385,VALID,89,VALID,0.130078,
2016-05-10, 10:29:04,VALID,917.126,VALID,0,VALID,61.6887,VALID,735.005,VALID,27.7557,VALID,89,VALID,0,
2016-05-10, 10:30:04,VALID,917.127,VALID,0,VALID,62.6187,VALID,714.591,VALID,27.7752,VALID,71,VALID,0.00390625,
2016-05-10, 10:31:04,VALID,917.1,VALID,0,VALID,64.5932,VALID,714.161,VALID,27.9316,VALID,61,VALID,0,
2016-05-10, 10:32:04,VALID,917.105,VALID,0,VALID,62.7941,VALID,717.492,VALID,27.9902,VALID,22,VALID,0.143359,
2016-05-10, 10:33:04,VALID,917.109,VALID,0,VALID,61.6429,VALID,717.707,VALID,28.0662,VALID,38,VALID,0.203516,
2016-05-10, 10:34:04,VALID,917.102,VALID,0,VALID,63.1295,VALID,719.104,VALID,28.0488,VALID,35,VALID,1.39023,
2016-05-10, 10:35:04,VALID,917.108,VALID,0,VALID,62.9313,VALID,723.831,VALID,27.9923,VALID,14,VALID,1.3043,
2016-05-10, 10:36:04,VALID,917.094,VALID,0,VALID,61.7802,VALID,724.476,VALID,27.9902,VALID,357,VALID,0.707812,
2016-05-10, 10:37:04,VALID,917.093,VALID,0,VALID,63.7927,VALID,731.137,VALID,27.8534,VALID,7,VALID,0.512109,
2016-05-10, 10:38:04,VALID,917.073,VALID,0,VALID,60.6519,VALID,737.154,VALID,27.9316,VALID,357,VALID,0,
2016-05-10, 10:39:04,VALID,917.042,VALID,0,VALID,62.5882,VALID,741.774,VALID,28.1096,VALID,54,VALID,0,
2016-05-10, 10:40:04,VALID,917.04,VALID,0,VALID,64.3111,VALID,746.501,VALID,28.0314,VALID,71,VALID,0.1,
2016-05-10, 10:41:04,VALID,917.007,VALID,0,VALID,63.2972,VALID,748.865,VALID,27.9316,VALID,42,VALID,1.19023,
2016-05-10, 10:42:04,VALID,916.994,VALID,0,VALID,62.977,VALID,758.105,VALID,27.8729,VALID,35,VALID,1.16719,
2016-05-10, 10:43:04,VALID,916.994,VALID,0,VALID,62.4586,VALID,792.271,VALID,27.8534,VALID,70,VALID,0.975,
2016-05-10, 10:44:04,VALID,916.997,VALID,0,VALID,62.9313,VALID,763.907,VALID,27.8708,VALID,65,VALID,0.0949219,
2016-05-10, 10:45:04,VALID,917.012,VALID,0,VALID,65.5385,VALID,751.981,VALID,27.9902,VALID,132,VALID,0,